Date String (YYYY-MM-DD hh:mm:ss) UTC,Instrument flags,Ambient pressure (hPa),Sample flow (lpm),Bypass flow (lpm),Sample temperature (°C),Ambient temperature (°C),ASC tube jacket temperature (°C),LED temperature (°C),Box temperature (°C),Sample RH (%),Span deviation,Mass concentration (μg/m³),Mass concentration (μg/m³),Mass concentration (μg/m³)
DateTimeUTC,F1_M11,P_M11,Q1_M11,Q2_M11,T1_M11,T2_M11,T3_M11,T4_M11,T5_M11,U1_M11,ZSPAN_M11,X0_M11,X2_M11,X1_M11
2022-11-25 16:00:00,,0834.0,4.99,0.00,23.0,22.0,00.0,31.8,24.9,11.2,0000.0,0002.60,0000.50,0000.29
2022-11-25 16:01:00,,0834.0,4.99,0.00,23.0,22.0,00.0,31.8,24.9,11.2,0000.0,0001.34,0000.47,0000.29
2022-11-25 16:02:00,,0834.0,5.00,0.00,23.0,22.0,00.0,31.8,24.9,11.4,0000.0,0000.90,0000.47,0000.29
2022-11-25 16:03:00,,0834.0,5.00,0.00,23.1,22.0,00.0,31.9,24.9,11.8,0000.0,0001.13,0000.46,0000.29
2022-11-25 16:04:00,,0834.0,5.00,0.00,23.1,22.0,00.0,31.9,24.9,11.9,0000.0,0002.41,0000.44,0000.29
2022-11-25 16:05:00,,0834.0,5.01,0.00,23.1,22.0,00.0,31.9,24.9,12.0,0000.0,0002.40,0000.42,0000.30
2022-11-25 16:06:00,,0834.0,5.00,0.00,23.1,22.1,00.0,31.9,25.0,11.9,0000.0,0002.37,0000.39,0000.29
2022-11-25 16:07:00,,0834.0,5.01,0.00,23.1,22.1,00.0,31.9,25.0,11.7,0000.0,0002.57,0000.38,0000.28
2022-11-25 16:08:00,,0834.0,4.98,0.00,23.1,22.1,00.0,31.9,25.0,11.8,0000.0,0002.70,0000.37,0000.28
2022-11-25 16:09:00,,0834.0,4.99,0.00,23.1,22.1,00.0,31.9,25.0,12.0,0000.0,0002.74,0000.38,0000.27
2022-11-25 16:10:00,,0833.9,5.02,0.00,23.2,22.2,00.0,31.9,25.0,11.8,0000.0,0002.78,0000.39,0000.27
2022-11-25 16:11:00,,0833.9,5.00,0.00,23.2,22.2,00.0,32.0,25.0,12.3,0000.0,0002.80,0000.39,0000.26
2022-11-25 16:12:00,,0833.9,4.99,0.00,23.2,22.2,00.0,32.0,25.1,12.3,0000.0,0002.78,0000.39,0000.27
2022-11-25 16:13:00,,0833.9,5.00,0.00,23.2,22.2,00.0,32.0,25.1,12.5,0000.0,0002.85,0000.42,0000.28
2022-11-25 16:14:00,,0833.9,4.99,0.00,23.2,22.3,00.0,32.0,25.1,12.4,0000.0,0002.87,0000.42,0000.29
2022-11-25 16:15:00,,0833.8,5.01,0.00,23.3,22.3,00.0,32.0,25.1,12.3,0000.0,0002.51,0000.41,0000.29
2022-11-25 16:16:00,,0833.9,5.01,0.00,23.3,22.3,00.0,32.0,25.1,12.2,0000.0,0001.22,0000.41,0000.29
2022-11-25 16:17:00,,0833.8,4.98,0.00,23.3,22.3,00.0,32.1,25.1,11.9,0000.0,0001.19,0000.40,0000.29
2022-11-25 16:18:00,,0833.9,5.01,0.00,23.3,22.3,00.0,32.1,25.2,11.3,0000.0,0001.11,0000.40,0000.29
2022-11-25 16:19:00,,0833.9,5.01,0.00,23.3,22.4,00.0,32.1,25.2,11.2,0000.0,0000.84,0000.39,0000.29
2022-11-25 16:20:00,,0833.9,4.99,0.00,23.3,22.4,00.0,32.1,25.2,11.2,0000.0,0000.62,0000.38,0000.29
2022-11-25 16:21:00,,0833.9,4.99,0.00,23.4,22.4,00.0,32.1,25.2,11.1,0000.0,0000.62,0000.38,0000.30
2022-11-25 16:22:00,,0833.9,5.00,0.00,23.4,22.4,00.0,32.1,25.2,11.2,0000.0,0000.60,0000.38,0000.31
2022-11-25 16:23:00,,0833.8,5.00,0.00,23.4,22.4,00.0,32.2,25.3,11.5,0000.0,0000.83,0000.37,0000.31
2022-11-25 16:24:00,,0833.9,5.00,0.00,23.4,22.5,00.0,32.2,25.3,12.0,0000.0,0002.33,0000.38,0000.30
2022-11-25 16:25:00,,0833.8,5.00,0.00,23.4,22.5,00.0,32.2,25.3,12.0,0000.0,0002.38,0000.35,0000.29
2022-11-25 16:26:00,,0833.9,5.00,0.00,23.5,22.5,00.0,32.2,25.3,11.6,0000.0,0003.28,0000.35,0000.30
2022-11-25 16:27:00,,0833.8,5.01,0.00,23.5,22.5,00.0,32.2,25.4,11.7,0000.0,0003.30,0000.36,0000.29
2022-11-25 16:28:00,,0833.8,5.01,0.00,23.5,22.6,00.0,32.3,25.4,11.5,0000.0,0003.33,0000.37,0000.29
2022-11-25 16:29:00,,0833.8,5.00,0.00,23.5,22.6,00.0,32.3,25.4,11.8,0000.0,0003.35,0000.38,0000.29
2022-11-25 16:30:00,,0833.8,4.98,0.00,23.5,22.6,00.0,32.3,25.4,10.9,0000.0,0003.37,0000.38,0000.30
2022-11-25 16:31:00,,0833.8,5.00,0.00,23.6,22.6,00.0,32.3,25.4,11.8,0000.0,0003.39,0000.40,0000.30
2022-11-25 16:32:00,,0833.8,5.01,0.00,23.6,22.6,00.0,32.3,25.5,12.4,0000.0,0003.51,0000.45,0000.32
2022-11-25 16:33:00,,0833.8,5.01,0.00,23.6,22.6,00.0,32.4,25.5,12.6,0000.0,0003.61,0000.50,0000.34
2022-11-25 16:34:00,,0833.7,4.99,0.00,23.6,22.7,00.0,32.4,25.5,12.5,0000.0,0003.95,0000.59,0000.36
2022-11-25 16:35:00,,0833.7,5.00,0.00,23.6,22.7,00.0,32.4,25.5,12.5,0000.0,0003.24,0000.65,0000.37
2022-11-25 16:36:00,,0833.7,5.01,0.00,23.6,22.7,00.0,32.4,25.5,12.6,0000.0,0003.93,0000.70,0000.41
2022-11-25 16:37:00,,0833.7,5.01,0.00,23.7,22.7,00.0,32.4,25.5,12.5,0000.0,0003.00,0000.74,0000.44
2022-11-25 16:38:00,,0833.7,5.00,0.00,23.7,22.7,00.0,32.4,25.5,12.7,0000.0,0003.10,0000.80,0000.48
2022-11-25 16:39:00,,0833.7,4.99,0.00,23.7,22.7,00.0,32.5,25.5,13.0,0000.0,0003.82,0000.90,0000.52
2022-11-25 16:40:00,,0833.7,5.01,0.00,23.7,22.8,00.0,32.5,25.5,12.9,0000.0,0004.13,0000.99,0000.56
2022-11-25 16:41:00,,0833.8,5.01,0.00,23.7,22.8,00.0,32.5,25.6,12.7,0000.0,0004.22,0001.05,0000.58
2022-11-25 16:42:00,,0833.7,4.98,0.00,23.7,22.8,00.0,32.5,25.6,12.7,0000.0,0004.30,0001.08,0000.61
2022-11-25 16:43:00,,0833.7,5.00,0.00,23.8,22.8,00.0,32.5,25.6,12.7,0000.0,0004.29,0001.06,0000.61
2022-11-25 16:44:00,,0833.7,5.00,0.00,23.8,22.8,00.0,32.5,25.7,12.7,0000.0,0004.29,0001.01,0000.60
2022-11-25 16:45:00,,0833.7,5.00,0.00,23.8,22.9,00.0,32.6,25.6,12.6,0000.0,0004.82,0001.01,0000.60
2022-11-25 16:46:00,,0833.7,5.00,0.00,23.8,22.9,00.0,32.6,25.7,12.3,0000.0,0004.70,0000.99,0000.60
2022-11-25 16:47:00,,0833.7,5.00,0.00,23.8,22.9,00.0,32.6,25.7,12.2,0000.0,0003.87,0000.95,0000.59
2022-11-25 16:48:00,,0833.6,5.01,0.00,23.9,22.9,00.0,32.6,25.7,12.3,0000.0,0003.89,0000.96,0000.57
2022-11-25 16:49:00,,0833.6,5.01,0.00,23.9,22.9,00.0,32.6,25.7,12.2,0000.0,0003.97,0000.97,0000.56
2022-11-25 16:50:00,,0833.6,4.99,0.00,23.9,22.9,00.0,32.6,25.7,12.3,0000.0,0003.49,0000.92,0000.53
2022-11-25 16:51:00,,0833.6,5.01,0.00,23.9,22.9,00.0,32.7,25.8,12.4,0000.0,0003.13,0000.85,0000.51
2022-11-25 16:52:00,,0833.6,5.01,0.00,23.9,23.0,00.0,32.7,25.9,12.1,0000.0,0003.23,0000.84,0000.51
2022-11-25 16:53:00,,0833.6,4.98,0.00,23.9,23.0,00.0,32.7,25.9,12.0,0000.0,0003.48,0000.88,0000.51
2022-11-25 16:54:00,,0833.6,5.00,0.00,24.0,23.0,00.0,32.7,25.9,11.9,0000.0,0003.57,0000.94,0000.53
2022-11-25 16:55:00,,0833.6,5.01,0.00,24.0,23.0,00.0,32.7,25.9,11.9,0000.0,0003.50,0000.97,0000.54
2022-11-25 16:56:00,,0833.6,5.00,0.00,24.0,23.0,00.0,32.7,25.9,11.8,0000.0,0002.53,0000.92,0000.55
2022-11-25 16:57:00,,0833.6,5.00,0.00,24.0,23.1,00.0,32.8,25.9,11.8,0000.0,0001.90,0000.87,0000.55
2022-11-25 16:58:00,,0833.6,5.00,0.00,24.0,23.1,00.0,32.8,25.9,12.0,0000.0,0002.66,0000.89,0000.55
2022-11-25 16:59:00,,0833.6,5.00,0.00,24.0,23.1,00.0,32.8,26.0,12.0,0000.0,0002.86,0000.92,0000.56
